Time,TemperatureF,DewpointF,PressureIn,WindDirection,WindDirectionDegrees,WindSpeedMPH,WindSpeedGustMPH,Humidity,HourlyPrecipIn,Conditions,Clouds,dailyrainin,SoftwareType,DateUTC
2013-02-03 00:00:00,15.5,11.4,29.97,NNW,338,0.0,0.7,84,0.00,,,0.00,WUHU216HW,2013-02-03 05:00:00,
2013-02-03 00:01:00,15.3,11.3,29.97,North,0,1.1,1.1,84,0.00,,,0.00,WUHU216HW,2013-02-03 05:01:00,
2013-02-03 00:06:00,15.3,11.1,29.97,SW,225,0.8,1.1,83,0.00,,,0.00,WUHU216HW,2013-02-03 05:06:00,
2013-02-03 00:11:00,15.5,11.3,29.97,SSE,158,0.4,1.1,83,0.00,,,0.00,WUHU216HW,2013-02-03 05:11:00,
2013-02-03 00:17:00,15.5,11.0,29.97,South,180,1.8,1.8,82,0.00,,,0.00,WUHU216HW,2013-02-03 05:17:00,
2013-02-03 00:22:00,15.5,10.7,29.97,SSE,158,0.2,1.8,81,0.00,,,0.00,WUHU216HW,2013-02-03 05:22:00,
2013-02-03 00:27:00,15.5,10.7,29.97,SSE,158,0.4,0.9,81,0.00,,,0.00,WUHU216HW,2013-02-03 05:27:00,
2013-02-03 00:32:00,15.5,10.7,29.97,South,180,0.8,0.9,81,0.00,,,0.00,WUHU216HW,2013-02-03 05:32:00,
2013-02-03 00:37:00,15.3,10.5,29.97,South,177,0.8,1.8,81,0.00,,,0.00,WUHU216HW,2013-02-03 05:37:00,
2013-02-03 00:42:00,15.1,10.6,29.97,South,172,0.6,1.8,82,0.00,,,0.00,WUHU216HW,2013-02-03 05:42:00,
2013-02-03 00:47:00,15.1,10.4,29.97,SSW,203,1.1,1.3,81,0.00,,,0.00,WUHU216HW,2013-02-03 05:47:00,
2013-02-03 00:52:00,15.3,10.5,29.96,SSW,203,0.0,1.1,81,0.00,,,0.00,WUHU216HW,2013-02-03 05:52:00,
2013-02-03 00:57:00,15.5,10.7,29.96,SSW,203,0.4,1.1,81,0.00,,,0.00,WUHU216HW,2013-02-03 05:57:00,
2013-02-03 01:02:00,15.5,10.7,29.97,SSW,203,0.0,0.4,81,0.00,,,0.00,WUHU216HW,2013-02-03 06:02:00,
2013-02-03 01:07:00,15.5,10.7,29.96,SSW,203,0.0,1.1,81,0.00,,,0.00,WUHU216HW,2013-02-03 06:07:00,
2013-02-03 01:12:00,15.3,10.5,29.96,SSW,203,0.0,1.1,81,0.00,,,0.00,WUHU216HW,2013-02-03 06:12:00,
2013-02-03 01:17:00,15.3,10.5,29.96,SSW,203,0.0,0.4,81,0.00,,,0.00,WUHU216HW,2013-02-03 06:17:00,
2013-02-03 01:22:00,15.3,10.3,29.96,SSW,203,0.2,0.2,80,0.00,,,0.00,WUHU216HW,2013-02-03 06:22:00,
2013-02-03 01:27:00,15.1,10.4,29.96,SSW,203,0.4,0.4,81,0.00,,,0.00,WUHU216HW,2013-02-03 06:27:00,
2013-02-03 01:32:00,14.9,10.2,29.96,SSW,203,0.9,0.9,81,0.00,,,0.00,WUHU216HW,2013-02-03 06:32:00,
2013-02-03 01:37:00,14.8,10.0,29.96,SSW,203,0.2,0.9,81,0.00,,,0.00,WUHU216HW,2013-02-03 06:37:00,
2013-02-03 01:42:00,14.8,10.0,29.96,SSW,203,0.4,0.4,81,0.00,,,0.00,WUHU216HW,2013-02-03 06:42:00,
2013-02-03 01:47:00,14.8,10.0,29.96,SSW,203,0.0,0.4,81,0.00,,,0.00,WUHU216HW,2013-02-03 06:47:00,
2013-02-03 01:52:00,14.8,9.7,29.96,SSW,203,0.0,0.4,80,0.00,,,0.00,WUHU216HW,2013-02-03 06:52:00,
2013-02-03 01:57:00,14.8,9.7,29.96,SSW,203,0.0,0.4,80,0.00,,,0.00,WUHU216HW,2013-02-03 06:57:00,
2013-02-03 02:02:00,14.8,9.7,29.96,SE,135,0.0,0.4,80,0.00,,,0.00,WUHU216HW,2013-02-03 07:02:00,
2013-02-03 02:07:00,14.8,9.7,29.96,SE,135,0.0,0.4,80,0.00,,,0.00,WUHU216HW,2013-02-03 07:07:00,
2013-02-03 02:12:00,14.8,10.0,29.96,SE,135,0.0,0.0,81,0.00,,,0.00,WUHU216HW,2013-02-03 07:12:00,
2013-02-03 02:17:00,14.8,10.0,29.96,SE,135,0.0,0.0,81,0.00,,,0.00,WUHU216HW,2013-02-03 07:17:00,
2013-02-03 02:22:00,14.8,9.7,29.95,SE,135,0.0,0.0,80,0.00,,,0.00,WUHU216HW,2013-02-03 07:22:00,
2013-02-03 02:27:00,14.8,9.7,29.96,SE,135,0.2,0.2,80,0.00,,,0.00,WUHU216HW,2013-02-03 07:27:00,
2013-02-03 02:32:00,14.8,9.7,29.95,SSW,203,0.3,0.4,80,0.00,,,0.00,WUHU216HW,2013-02-03 07:32:00,
2013-02-03 02:37:00,14.6,9.5,29.95,SSW,203,0.2,0.4,80,0.00,,,0.00,WUHU216HW,2013-02-03 07:37:00,
2013-02-03 02:42:00,14.6,9.5,29.95,SSW,203,0.2,0.4,80,0.00,,,0.00,WUHU216HW,2013-02-03 07:42:00,
2013-02-03 02:47:00,14.8,9.5,29.95,SSW,203,0.0,0.4,79,0.00,,,0.00,WUHU216HW,2013-02-03 07:47:00,
2013-02-03 02:52:00,14.6,9.3,29.95,SSE,158,0.0,0.2,79,0.00,,,0.00,WUHU216HW,2013-02-03 07:52:00,
2013-02-03 02:57:00,14.6,9.3,29.94,SSE,158,0.0,0.2,79,0.00,,,0.00,WUHU216HW,2013-02-03 07:57:00,
2013-02-03 03:02:00,14.6,9.3,29.94,SSE,158,0.0,0.0,79,0.00,,,0.00,WUHU216HW,2013-02-03 08:02:00,
2013-02-03 03:07:00,14.6,9.3,29.94,SSE,158,0.2,0.2,79,0.00,,,0.00,WUHU216HW,2013-02-03 08:07:00,
2013-02-03 03:12:00,14.2,8.9,29.94,South,180,0.0,0.2,79,0.00,,,0.00,WUHU216HW,2013-02-03 08:12:00,
2013-02-03 03:17:00,14.2,8.9,29.94,SW,228,0.7,1.1,79,0.00,,,0.00,WUHU216HW,2013-02-03 08:17:00,
2013-02-03 03:22:00,14.0,8.7,29.94,WSW,248,0.0,1.1,79,0.00,,,0.00,WUHU216HW,2013-02-03 08:22:00,
2013-02-03 03:27:00,13.7,8.4,29.94,SSW,203,0.4,0.7,79,0.00,,,0.00,WUHU216HW,2013-02-03 08:27:00,
2013-02-03 03:32:00,13.3,8.0,29.94,SSW,203,0.0,0.7,79,0.00,,,0.00,WUHU216HW,2013-02-03 08:32:00,
2013-02-03 03:37:00,13.3,8.0,29.94,SSW,203,0.7,0.7,79,0.00,,,0.00,WUHU216HW,2013-02-03 08:37:00,
2013-02-03 03:42:00,13.1,7.8,29.93,SSW,203,0.7,0.9,79,0.00,,,0.00,WUHU216HW,2013-02-03 08:42:00,
2013-02-03 03:47:00,13.0,7.7,29.94,SSW,203,0.4,0.9,79,0.00,,,0.00,WUHU216HW,2013-02-03 08:47:00,
2013-02-03 03:52:00,13.1,7.8,29.93,SSW,203,0.0,0.4,79,0.00,,,0.00,WUHU216HW,2013-02-03 08:52:00,
2013-02-03 03:57:00,13.1,7.8,29.93,SSW,203,0.4,0.4,79,0.00,,,0.00,WUHU216HW,2013-02-03 08:57:00,
2013-02-03 04:02:00,13.0,7.7,29.93,SSW,203,0.0,0.4,79,0.00,,,0.00,WUHU216HW,2013-02-03 09:02:00,
2013-02-03 04:07:00,13.0,7.7,29.93,SSW,203,0.0,0.4,79,0.00,,,0.00,WUHU216HW,2013-02-03 09:07:00,
2013-02-03 04:12:00,13.0,7.7,29.93,SSW,203,0.4,0.4,79,0.00,,,0.00,WUHU216HW,2013-02-03 09:12:00,
2013-02-03 04:17:00,13.0,7.7,29.93,SSW,203,0.4,0.4,79,0.00,,,0.00,WUHU216HW,2013-02-03 09:17:00,
2013-02-03 04:22:00,13.0,7.7,29.93,SSW,203,0.0,0.4,79,0.00,,,0.00,WUHU216HW,2013-02-03 09:22:00,
2013-02-03 04:27:00,12.8,7.5,29.93,SSW,203,0.0,0.4,79,0.00,,,0.00,WUHU216HW,2013-02-03 09:27:00,
2013-02-03 04:32:00,12.6,7.3,29.93,SW,225,0.0,0.0,79,0.00,,,0.00,WUHU216HW,2013-02-03 09:32:00,
2013-02-03 04:37:00,12.4,7.1,29.92,SW,225,0.0,0.0,79,0.00,,,0.00,WUHU216HW,2013-02-03 09:37:00,
2013-02-03 04:42:00,12.4,7.1,29.93,SW,225,0.0,0.0,79,0.00,,,0.00,WUHU216HW,2013-02-03 09:42:00,
2013-02-03 04:47:00,12.1,7.0,29.92,SW,225,0.0,0.0,80,0.00,,,0.00,WUHU216HW,2013-02-03 09:47:00,
2013-02-03 04:55:00,12.1,6.8,29.93,SW,225,0.0,0.2,79,0.00,,,0.00,WUHU216HW,2013-02-03 09:55:00,
2013-02-03 05:00:00,12.1,6.8,29.92,SW,225,0.0,0.2,79,0.00,,,0.00,WUHU216HW,2013-02-03 10:00:00,
2013-02-03 05:05:00,12.1,6.8,29.92,SW,225,0.2,0.2,79,0.00,,,0.00,WUHU216HW,2013-02-03 10:05:00,
2013-02-03 05:10:00,11.9,6.6,29.92,SW,225,0.2,0.4,79,0.00,,,0.00,WUHU216HW,2013-02-03 10:10:00,
2013-02-03 05:15:00,11.7,6.4,29.92,SW,225,0.0,0.4,79,0.00,,,0.00,WUHU216HW,2013-02-03 10:15:00,
2013-02-03 05:20:00,11.5,6.2,29.92,SW,225,0.0,0.0,79,0.00,,,0.00,WUHU216HW,2013-02-03 10:20:00,
2013-02-03 05:25:00,11.3,6.0,29.92,SW,225,0.0,0.4,79,0.00,,,0.00,WUHU216HW,2013-02-03 10:25:00,
2013-02-03 05:30:00,11.0,5.7,29.92,SW,225,0.4,0.4,79,0.00,,,0.00,WUHU216HW,2013-02-03 10:30:00,
2013-02-03 05:35:00,10.6,5.3,29.92,SW,225,0.4,0.9,79,0.00,,,0.00,WUHU216HW,2013-02-03 10:35:00,
2013-02-03 05:40:00,10.4,5.1,29.92,SW,225,0.4,0.9,79,0.00,,,0.00,WUHU216HW,2013-02-03 10:40:00,
2013-02-03 05:45:00,10.3,4.7,29.92,SW,225,0.3,1.1,78,0.00,,,0.00,WUHU216HW,2013-02-03 10:45:00,
2013-02-03 05:50:00,10.1,4.5,29.92,West,270,0.0,1.1,78,0.00,,,0.00,WUHU216HW,2013-02-03 10:50:00,
2013-02-03 05:55:00,10.1,4.5,29.92,WSW,248,0.2,0.2,78,0.00,,,0.00,WUHU216HW,2013-02-03 10:55:00,
2013-02-03 06:00:00,10.1,4.5,29.92,WSW,248,0.2,0.2,78,0.00,,,0.00,WUHU216HW,2013-02-03 11:00:00,
2013-02-03 06:05:00,10.1,4.5,29.92,WSW,248,0.9,0.9,78,0.00,,,0.00,WUHU216HW,2013-02-03 11:05:00,
2013-02-03 06:10:00,9.9,4.3,29.92,WSW,248,0.7,0.9,78,0.00,,,0.00,WUHU216HW,2013-02-03 11:10:00,
2013-02-03 06:15:00,9.7,4.1,29.92,WSW,248,0.4,0.7,78,0.00,,,0.00,WUHU216HW,2013-02-03 11:15:00,
2013-02-03 06:20:00,9.5,4.1,29.92,ESE,113,0.2,0.4,78,0.00,,,0.00,WUHU216HW,2013-02-03 11:20:00,
2013-02-03 06:25:00,9.2,3.7,29.92,ESE,113,0.2,0.4,78,0.00,,,0.00,WUHU216HW,2013-02-03 11:25:00,
2013-02-03 06:30:00,9.0,3.8,29.92,ENE,68,0.2,0.4,79,0.00,,,0.00,WUHU216HW,2013-02-03 11:30:00,
2013-02-03 06:35:00,8.6,3.5,29.92,ENE,68,0.4,0.4,79,0.00,,,0.00,WUHU216HW,2013-02-03 11:35:00,
2013-02-03 06:40:00,8.5,3.6,29.92,ENE,68,0.0,0.4,80,0.00,,,0.00,WUHU216HW,2013-02-03 11:40:00,
2013-02-03 06:45:00,8.3,3.4,29.92,ENE,68,0.0,0.2,80,0.00,,,0.00,WUHU216HW,2013-02-03 11:45:00,
2013-02-03 06:50:00,8.3,3.4,29.92,ENE,68,0.0,0.0,80,0.00,,,0.00,WUHU216HW,2013-02-03 11:50:00,
2013-02-03 06:55:00,8.3,3.4,29.92,ENE,68,0.0,0.0,80,0.00,,,0.00,WUHU216HW,2013-02-03 11:55:00,
2013-02-03 07:00:00,8.1,3.2,29.92,ENE,68,0.0,0.0,80,0.00,,,0.00,WUHU216HW,2013-02-03 12:00:00,
2013-02-03 07:05:00,8.1,3.2,29.92,ENE,68,0.0,0.0,80,0.00,,,0.00,WUHU216HW,2013-02-03 12:05:00,
2013-02-03 07:10:00,8.5,3.6,29.92,ENE,68,0.0,0.0,80,0.00,,,0.00,WUHU216HW,2013-02-03 12:10:00,
2013-02-03 07:16:00,9.0,4.3,29.92,ENE,68,0.4,0.4,81,0.00,,,0.00,WUHU216HW,2013-02-03 12:16:00,
2013-02-03 07:21:00,9.0,4.9,29.92,North,0,0.4,0.4,83,0.00,,,0.00,WUHU216HW,2013-02-03 12:21:00,
2013-02-03 07:26:00,9.2,5.1,29.92,North,0,0.4,0.7,83,0.00,,,0.00,WUHU216HW,2013-02-03 12:26:00,
2013-02-03 07:31:00,9.0,4.6,29.92,North,0,0.2,0.7,82,0.00,,,0.00,WUHU216HW,2013-02-03 12:31:00,
2013-02-03 07:36:00,9.0,4.9,29.92,North,0,0.4,0.7,83,0.00,,,0.00,WUHU216HW,2013-02-03 12:36:00,
2013-02-03 07:41:00,8.8,4.7,29.92,North,0,0.4,0.7,83,0.00,,,0.00,WUHU216HW,2013-02-03 12:41:00,
2013-02-03 07:46:00,9.0,4.9,29.92,NNE,23,0.2,0.4,83,0.00,,,0.00,WUHU216HW,2013-02-03 12:46:00,
2013-02-03 07:51:00,9.0,4.9,29.92,NNE,23,0.2,0.4,83,0.00,,,0.00,WUHU216HW,2013-02-03 12:51:00,
2013-02-03 07:56:00,9.0,4.9,29.92,SSE,158,0.0,0.4,83,0.00,,,0.00,WUHU216HW,2013-02-03 12:56:00,
2013-02-03 08:01:00,9.0,4.9,29.92,SSE,158,0.0,0.2,83,0.00,,,0.00,WUHU216HW,2013-02-03 13:01:00,
2013-02-03 08:06:00,8.6,4.5,29.92,SW,225,0.7,0.7,83,0.00,,,0.00,WUHU216HW,2013-02-03 13:06:00,
2013-02-03 08:11:00,8.3,4.0,29.92,SW,225,0.6,0.7,82,0.00,,,0.00,WUHU216HW,2013-02-03 13:11:00,
2013-02-03 08:16:00,8.3,4.0,29.92,SW,225,0.4,0.7,82,0.00,,,0.00,WUHU216HW,2013-02-03 13:16:00,
2013-02-03 08:21:00,8.1,3.5,29.92,WSW,248,0.4,0.7,81,0.00,,,0.00,WUHU216HW,2013-02-03 13:21:00,
2013-02-03 08:26:00,8.3,3.7,29.92,WSW,248,0.2,0.7,81,0.00,,,0.00,WUHU216HW,2013-02-03 13:26:00,
2013-02-03 08:31:00,8.3,4.0,29.92,WSW,248,0.4,0.4,82,0.00,,,0.00,WUHU216HW,2013-02-03 13:31:00,
2013-02-03 08:36:00,8.3,4.0,29.92,SW,225,0.0,0.4,82,0.00,,,0.00,WUHU216HW,2013-02-03 13:36:00,
2013-02-03 08:41:00,8.3,4.0,29.92,SW,225,0.0,0.2,82,0.00,,,0.00,WUHU216HW,2013-02-03 13:41:00,
2013-02-03 08:46:00,8.5,4.2,29.93,SW,225,0.0,0.4,82,0.00,,,0.00,WUHU216HW,2013-02-03 13:46:00,
2013-02-03 08:51:00,8.8,4.4,29.92,North,0,0.4,0.4,82,0.00,,,0.00,WUHU216HW,2013-02-03 13:51:00,
2013-02-03 08:56:00,9.4,5.0,29.92,North,0,0.9,0.9,82,0.00,,,0.00,WUHU216HW,2013-02-03 13:56:00,
2013-02-03 09:01:00,9.5,5.4,29.92,North,0,0.2,1.1,83,0.00,,,0.00,WUHU216HW,2013-02-03 14:01:00,
2013-02-03 09:06:00,9.7,5.8,29.92,North,0,0.2,1.1,84,0.00,,,0.00,WUHU216HW,2013-02-03 14:06:00,
2013-02-03 09:11:00,9.9,5.7,29.92,North,0,0.0,0.4,83,0.00,,,0.00,WUHU216HW,2013-02-03 14:11:00,
2013-02-03 09:17:00,10.3,6.3,29.92,North,0,0.4,0.4,84,0.00,,,0.00,WUHU216HW,2013-02-03 14:17:00,
2013-02-03 09:22:00,10.6,6.7,29.93,North,0,0.2,0.4,84,0.00,,,0.00,WUHU216HW,2013-02-03 14:22:00,
2013-02-03 09:27:00,11.0,7.0,29.92,North,0,0.0,0.2,84,0.00,,,0.00,WUHU216HW,2013-02-03 14:27:00,
2013-02-03 09:32:00,11.2,6.9,29.92,WNW,293,0.4,0.4,83,0.00,,,0.00,WUHU216HW,2013-02-03 14:32:00,
2013-02-03 09:37:00,11.3,7.1,29.92,SSW,203,0.4,0.4,83,0.00,,,0.00,WUHU216HW,2013-02-03 14:37:00,
2013-02-03 09:42:00,11.5,7.3,29.92,WSW,248,0.0,0.7,83,0.00,,,0.00,WUHU216HW,2013-02-03 14:42:00,
2013-02-03 09:46:00,11.9,7.9,29.92,SW,225,1.1,1.1,84,0.00,,,0.00,WUHU216HW,2013-02-03 14:46:00,
2013-02-03 09:52:00,11.9,7.7,29.92,WSW,248,1.1,1.1,83,0.00,,,0.00,WUHU216HW,2013-02-03 14:52:00,
2013-02-03 09:57:00,12.2,8.0,29.92,SE,135,0.6,1.1,83,0.00,,,0.00,WUHU216HW,2013-02-03 14:57:00,
2013-02-03 10:02:00,12.4,8.2,29.92,NE,37,1.0,1.3,83,0.00,,,0.00,WUHU216HW,2013-02-03 15:02:00,
2013-02-03 10:06:00,12.4,8.2,29.91,NNE,23,0.0,1.3,83,0.00,,,0.00,WUHU216HW,2013-02-03 15:06:00,
2013-02-03 10:12:00,12.6,8.4,29.91,ESE,113,0.7,0.7,83,0.00,,,0.00,WUHU216HW,2013-02-03 15:12:00,
2013-02-03 10:17:00,13.0,8.7,29.91,SE,135,0.2,0.7,83,0.00,,,0.00,WUHU216HW,2013-02-03 15:17:00,
2013-02-03 10:22:00,13.9,9.9,29.91,NNE,23,1.1,1.3,84,0.00,,,0.00,WUHU216HW,2013-02-03 15:22:00,
2013-02-03 10:27:00,13.9,9.6,29.91,SE,135,0.7,1.3,83,0.00,,,0.00,WUHU216HW,2013-02-03 15:27:00,
2013-02-03 10:32:00,14.0,9.8,29.91,SSW,203,0.9,2.0,83,0.00,,,0.00,WUHU216HW,2013-02-03 15:32:00,
2013-02-03 10:37:00,14.4,10.2,29.91,WSW,248,0.7,2.0,83,0.00,,,0.00,WUHU216HW,2013-02-03 15:37:00,
2013-02-03 10:41:00,14.9,10.7,29.90,SE,135,1.1,1.1,83,0.00,,,0.00,WUHU216HW,2013-02-03 15:41:00,
2013-02-03 10:46:00,15.3,10.8,29.90,NNE,23,1.8,1.8,82,0.00,,,0.00,WUHU216HW,2013-02-03 15:46:00,
2013-02-03 10:51:00,15.3,10.5,29.90,SE,135,0.7,1.8,81,0.00,,,0.00,WUHU216HW,2013-02-03 15:51:00,
2013-02-03 10:56:00,15.8,11.4,29.89,NE,45,1.3,1.3,82,0.00,,,0.00,WUHU216HW,2013-02-03 15:56:00,
2013-02-03 11:01:00,16.0,11.3,29.89,NE,45,0.4,1.3,81,0.00,,,0.00,WUHU216HW,2013-02-03 16:01:00,
2013-02-03 11:06:00,16.7,11.6,29.89,ESE,113,0.4,1.8,80,0.00,,,0.00,WUHU216HW,2013-02-03 16:06:00,
2013-02-03 11:11:00,17.3,12.1,29.88,ESE,113,0.0,1.8,80,0.00,,,0.00,WUHU216HW,2013-02-03 16:11:00,
2013-02-03 11:16:00,18.0,12.8,29.88,ESE,113,0.4,0.4,80,0.00,,,0.00,WUHU216HW,2013-02-03 16:16:00,
2013-02-03 11:21:00,18.5,13.1,29.87,NE,45,0.7,0.7,79,0.00,,,0.00,WUHU216HW,2013-02-03 16:21:00,
2013-02-03 11:26:00,19.1,12.7,29.87,North,0,0.7,0.7,76,0.00,,,0.00,WUHU216HW,2013-02-03 16:26:00,
2013-02-03 11:31:00,18.7,12.9,29.86,North,0,0.4,0.7,78,0.00,,,0.00,WUHU216HW,2013-02-03 16:31:00,
2013-02-03 11:36:00,19.3,13.4,29.86,WNW,293,1.0,1.1,78,0.00,,,0.00,WUHU216HW,2013-02-03 16:36:00,
2013-02-03 11:41:00,20.0,13.9,29.86,NE,45,0.4,1.1,77,0.00,,,0.00,WUHU216HW,2013-02-03 16:41:00,
2013-02-03 11:46:00,20.9,14.8,29.86,NE,45,0.2,1.1,77,0.00,,,0.00,WUHU216HW,2013-02-03 16:46:00,
2013-02-03 11:51:00,21.6,15.5,29.85,NNE,23,0.4,1.1,77,0.00,,,0.00,WUHU216HW,2013-02-03 16:51:00,
2013-02-03 11:56:00,22.0,15.2,29.85,North,0,0.6,0.7,75,0.00,,,0.00,WUHU216HW,2013-02-03 16:56:00,
2013-02-03 12:01:00,22.1,15.4,29.84,NNW,338,0.4,1.1,75,0.00,,,0.00,WUHU216HW,2013-02-03 17:01:00,
2013-02-03 12:06:00,21.8,14.4,29.84,North,0,0.9,1.1,73,0.00,,,0.00,WUHU216HW,2013-02-03 17:06:00,
2013-02-03 12:11:00,21.2,14.2,29.84,NE,45,1.1,1.3,74,0.00,,,0.00,WUHU216HW,2013-02-03 17:11:00,
2013-02-03 12:16:00,21.8,15.0,29.83,NNE,23,0.7,1.3,75,0.00,,,0.00,WUHU216HW,2013-02-03 17:16:00,
2013-02-03 12:21:00,22.1,15.1,29.83,ESE,113,1.1,1.1,74,0.00,,,0.00,WUHU216HW,2013-02-03 17:21:00,
2013-02-03 12:26:00,22.0,14.3,29.83,SE,135,0.9,1.6,72,0.00,,,0.00,WUHU216HW,2013-02-03 17:26:00,
2013-02-03 12:31:00,22.1,13.9,29.83,East,90,1.8,1.8,70,0.00,,,0.00,WUHU216HW,2013-02-03 17:31:00,
2013-02-03 12:36:00,22.1,14.1,29.83,NNE,23,0.7,1.8,71,0.00,,,0.00,WUHU216HW,2013-02-03 17:36:00,
2013-02-03 12:41:00,22.1,14.1,29.82,SE,135,1.3,1.3,71,0.00,,,0.00,WUHU216HW,2013-02-03 17:41:00,
2013-02-03 12:46:00,22.7,15.0,29.82,NNE,23,0.6,1.8,72,0.00,,,0.00,WUHU216HW,2013-02-03 17:46:00,
2013-02-03 12:51:00,22.7,14.7,29.82,North,0,1.3,1.8,71,0.00,,,0.00,WUHU216HW,2013-02-03 17:51:00,
2013-02-03 12:56:00,23.0,15.0,29.81,North,0,1.1,1.3,71,0.00,,,0.00,WUHU216HW,2013-02-03 17:56:00,
2013-02-03 13:01:00,22.9,14.9,29.81,NNE,23,0.3,1.8,71,0.00,,,0.00,WUHU216HW,2013-02-03 18:01:00,
2013-02-03 13:06:00,22.7,15.0,29.81,North,0,0.6,1.8,72,0.00,,,0.00,WUHU216HW,2013-02-03 18:06:00,
2013-02-03 13:11:00,22.9,14.9,29.81,NE,45,1.8,2.9,71,0.00,,,0.00,WUHU216HW,2013-02-03 18:11:00,
2013-02-03 13:16:00,22.7,14.4,29.80,NNE,23,2.0,2.9,70,0.00,,,0.00,WUHU216HW,2013-02-03 18:16:00,
2013-02-03 13:21:00,22.7,14.0,29.79,NNE,17,1.7,2.5,69,0.00,,,0.00,WUHU216HW,2013-02-03 18:21:00,
2013-02-03 13:26:00,22.7,14.0,29.79,North,0,1.7,2.5,69,0.00,,,0.00,WUHU216HW,2013-02-03 18:26:00,
2013-02-03 13:31:00,22.9,13.9,29.79,ESE,113,1.8,2.2,68,0.00,,,0.00,WUHU216HW,2013-02-03 18:31:00,
2013-02-03 13:36:00,22.7,14.0,29.79,North,0,1.8,3.1,69,0.00,,,0.00,WUHU216HW,2013-02-03 18:36:00,
2013-02-03 13:41:00,22.3,13.7,29.79,North,0,0.9,3.1,69,0.00,,,0.00,WUHU216HW,2013-02-03 18:41:00,
2013-02-03 13:46:00,22.0,13.0,29.78,North,0,0.6,1.1,68,0.00,,,0.00,WUHU216HW,2013-02-03 18:46:00,
2013-02-03 13:51:00,22.3,13.7,29.78,WNW,293,0.7,0.9,69,0.00,,,0.00,WUHU216HW,2013-02-03 18:51:00,
2013-02-03 13:56:00,22.9,13.9,29.78,North,0,0.7,0.7,68,0.00,,,0.00,WUHU216HW,2013-02-03 18:56:00,
2013-02-03 14:01:00,22.7,13.3,29.78,North,0,0.9,1.6,67,0.00,,,0.00,WUHU216HW,2013-02-03 19:01:00,
2013-02-03 14:06:00,22.7,14.0,29.78,North,0,1.1,1.6,69,0.00,,,0.00,WUHU216HW,2013-02-03 19:06:00,
2013-02-03 14:11:00,23.0,14.4,29.77,ENE,68,1.1,1.1,69,0.00,,,0.00,WUHU216HW,2013-02-03 19:11:00,
2013-02-03 14:16:00,23.4,14.4,29.77,North,0,1.1,1.1,68,0.00,,,0.00,WUHU216HW,2013-02-03 19:16:00,
2013-02-03 14:21:00,23.4,14.1,29.77,North,0,0.9,1.1,67,0.00,,,0.00,WUHU216HW,2013-02-03 19:21:00,
2013-02-03 14:26:00,23.4,13.7,29.77,NNE,23,0.4,1.6,66,0.00,,,0.00,WUHU216HW,2013-02-03 19:26:00,
2013-02-03 14:31:00,24.1,14.3,29.77,NNE,23,0.4,1.6,66,0.00,,,0.00,WUHU216HW,2013-02-03 19:31:00,
2013-02-03 14:36:00,24.7,14.1,29.77,SSW,211,0.8,1.3,64,0.00,,,0.00,WUHU216HW,2013-02-03 19:36:00,
2013-02-03 14:41:00,24.5,14.0,29.77,NE,45,0.9,1.3,64,0.00,,,0.00,WUHU216HW,2013-02-03 19:41:00,
2013-02-03 14:46:00,24.8,14.3,29.77,SW,225,1.1,1.1,64,0.00,,,0.00,WUHU216HW,2013-02-03 19:46:00,
2013-02-03 14:51:00,24.5,13.7,29.77,North,0,0.9,1.1,63,0.00,,,0.00,WUHU216HW,2013-02-03 19:51:00,
2013-02-03 14:56:00,24.3,13.5,29.77,North,0,0.4,1.1,63,0.00,,,0.00,WUHU216HW,2013-02-03 19:56:00,
2013-02-03 15:01:00,24.1,13.7,29.77,SW,225,1.1,1.6,64,0.00,,,0.00,WUHU216HW,2013-02-03 20:01:00,
2013-02-03 15:06:00,23.9,13.5,29.76,West,270,0.2,1.6,64,0.00,,,0.00,WUHU216HW,2013-02-03 20:06:00,
2013-02-03 15:11:00,24.1,13.3,29.76,West,270,0.4,0.4,63,0.00,,,0.00,WUHU216HW,2013-02-03 20:11:00,
2013-02-03 15:16:00,24.1,13.0,29.77,SSW,203,0.4,0.9,62,0.00,,,0.00,WUHU216HW,2013-02-03 20:16:00,
2013-02-03 15:21:00,24.1,13.3,29.76,SW,225,0.0,1.8,63,0.00,,,0.00,WUHU216HW,2013-02-03 20:21:00,
2013-02-03 15:26:00,24.1,13.3,29.76,NW,315,0.0,1.8,63,0.00,,,0.00,WUHU216HW,2013-02-03 20:26:00,
2013-02-03 15:31:00,24.1,12.2,29.76,WSW,248,0.4,3.1,60,0.00,,,0.00,WUHU216HW,2013-02-03 20:31:00,
2013-02-03 15:36:00,24.1,12.6,29.76,WSW,248,0.0,3.1,61,0.00,,,0.00,WUHU216HW,2013-02-03 20:36:00,
2013-02-03 15:41:00,23.9,12.8,29.76,WSW,248,0.8,1.6,62,0.00,,,0.00,WUHU216HW,2013-02-03 20:41:00,
2013-02-03 15:46:00,23.9,12.1,29.76,SSW,208,0.8,1.1,60,0.00,,,0.00,WUHU216HW,2013-02-03 20:46:00,
2013-02-03 15:51:00,23.8,12.6,29.76,SW,225,0.2,1.1,62,0.00,,,0.00,WUHU216HW,2013-02-03 20:51:00,
2013-02-03 15:56:00,23.9,12.8,29.75,WSW,248,0.8,1.1,62,0.00,,,0.00,WUHU216HW,2013-02-03 20:56:00,
2013-02-03 16:01:00,24.1,13.0,29.75,WSW,248,0.0,1.1,62,0.00,,,0.00,WUHU216HW,2013-02-03 21:01:00,
2013-02-03 16:06:00,24.1,13.3,29.75,SE,135,1.1,1.3,63,0.00,,,0.00,WUHU216HW,2013-02-03 21:06:00,
2013-02-03 16:11:00,24.1,12.6,29.75,SE,135,0.2,1.3,61,0.00,,,0.00,WUHU216HW,2013-02-03 21:11:00,
2013-02-03 16:16:00,23.8,12.6,29.75,SSE,158,0.0,1.1,62,0.00,,,0.00,WUHU216HW,2013-02-03 21:16:00,
2013-02-03 16:21:00,23.8,13.0,29.75,SSE,158,0.0,0.4,63,0.00,,,0.00,WUHU216HW,2013-02-03 21:21:00,
2013-02-03 16:26:00,23.4,13.0,29.75,SSE,158,0.0,0.0,64,0.00,,,0.00,WUHU216HW,2013-02-03 21:26:00,
2013-02-03 16:31:00,22.7,12.2,29.75,SSE,158,0.2,0.4,64,0.00,,,0.00,WUHU216HW,2013-02-03 21:31:00,
2013-02-03 16:36:00,22.5,12.1,29.74,SSE,158,0.0,0.4,64,0.00,,,0.00,WUHU216HW,2013-02-03 21:36:00,
2013-02-03 16:41:00,22.5,12.4,29.74,SSE,158,0.0,0.0,65,0.00,,,0.00,WUHU216HW,2013-02-03 21:41:00,
2013-02-03 16:46:00,22.5,12.4,29.74,SSE,158,0.0,0.0,65,0.00,,,0.00,WUHU216HW,2013-02-03 21:46:00,
2013-02-03 16:51:00,22.3,11.9,29.74,SSE,158,0.0,0.0,64,0.00,,,0.00,WUHU216HW,2013-02-03 21:51:00,
2013-02-03 16:56:00,22.3,12.2,29.74,SSE,158,0.0,0.0,65,0.00,,,0.00,WUHU216HW,2013-02-03 21:56:00,
2013-02-03 17:01:00,22.3,12.2,29.74,SSE,158,0.0,0.0,65,0.00,,,0.00,WUHU216HW,2013-02-03 22:01:00,
2013-02-03 17:06:00,22.3,12.2,29.74,SSE,158,0.0,0.0,65,0.00,,,0.00,WUHU216HW,2013-02-03 22:06:00,
2013-02-03 17:11:00,22.3,12.6,29.74,SSE,158,0.0,0.0,66,0.00,,,0.00,WUHU216HW,2013-02-03 22:11:00,
2013-02-03 17:16:00,22.3,12.6,29.74,SSE,158,0.0,0.0,66,0.00,,,0.00,WUHU216HW,2013-02-03 22:16:00,
2013-02-03 18:00:00,20.9,10.9,29.73,SSW,203,0.4,0.4,65,0.00,,,0.00,WUHU216HW,2013-02-03 23:00:00,
2013-02-03 18:05:00,20.5,10.9,29.73,SW,225,0.3,0.4,66,0.00,,,0.00,WUHU216HW,2013-02-03 23:05:00,
2013-02-03 18:10:00,20.5,10.9,29.73,SW,225,0.4,0.4,66,0.00,,,0.00,WUHU216HW,2013-02-03 23:10:00,
2013-02-03 18:15:00,20.5,10.9,29.73,SW,225,1.1,1.1,66,0.00,,,0.00,WUHU216HW,2013-02-03 23:15:00,
2013-02-03 18:20:00,20.5,11.3,29.73,SW,225,0.9,1.1,67,0.00,,,0.00,WUHU216HW,2013-02-03 23:20:00,
2013-02-03 18:25:00,20.5,11.3,29.73,SW,225,0.7,0.9,67,0.00,,,0.00,WUHU216HW,2013-02-03 23:25:00,
2013-02-03 18:31:00,20.3,11.1,29.73,SW,225,0.7,0.9,67,0.00,,,0.00,WUHU216HW,2013-02-03 23:31:00,
2013-02-03 18:36:00,20.2,11.2,29.73,WSW,248,0.7,0.9,68,0.00,,,0.00,WUHU216HW,2013-02-03 23:36:00,
2013-02-03 18:41:00,20.0,11.0,29.73,WSW,248,0.4,0.9,68,0.00,,,0.00,WUHU216HW,2013-02-03 23:41:00,
2013-02-03 18:46:00,19.8,10.8,29.73,WSW,248,0.4,0.4,68,0.00,,,0.00,WUHU216HW,2013-02-03 23:46:00,
2013-02-03 18:51:00,19.8,10.8,29.73,WSW,248,0.8,1.1,68,0.00,,,0.00,WUHU216HW,2013-02-03 23:51:00,
2013-02-03 18:56:00,19.4,10.4,29.73,WSW,248,0.3,1.1,68,0.00,,,0.00,WUHU216HW,2013-02-03 23:56:00,
2013-02-03 19:01:00,19.1,10.5,29.72,WSW,248,0.4,0.4,69,0.00,,,0.00,WUHU216HW,2013-02-04 00:01:00,
2013-02-03 19:06:00,18.9,10.4,29.72,WSW,248,0.4,1.1,69,0.00,,,0.00,WUHU216HW,2013-02-04 00:06:00,
2013-02-03 19:11:00,18.9,10.4,29.72,SW,229,1.1,1.8,69,0.00,,,0.00,WUHU216HW,2013-02-04 00:11:00,
2013-02-03 19:16:00,18.9,10.4,29.72,SW,225,1.1,1.8,69,0.00,,,0.00,WUHU216HW,2013-02-04 00:16:00,
2013-02-03 19:21:00,18.7,10.2,29.72,WNW,293,0.7,1.1,69,0.00,,,0.00,WUHU216HW,2013-02-04 00:21:00,
2013-02-03 19:26:00,18.4,10.2,29.72,SW,225,1.1,1.1,70,0.00,,,0.00,WUHU216HW,2013-02-04 00:26:00,
2013-02-03 19:31:00,18.4,10.2,29.72,West,270,0.9,1.1,70,0.00,,,0.00,WUHU216HW,2013-02-04 00:31:00,
2013-02-03 19:36:00,18.0,9.9,29.72,WSW,240,1.3,1.8,70,0.00,,,0.00,WUHU216HW,2013-02-04 00:36:00,
2013-02-03 19:41:00,17.8,10.0,29.72,SW,225,0.4,1.8,71,0.00,,,0.00,WUHU216HW,2013-02-04 00:41:00,
2013-02-03 19:46:00,17.8,10.0,29.73,WSW,256,1.5,1.8,71,0.00,,,0.00,WUHU216HW,2013-02-04 00:46:00,
2013-02-03 19:53:00,18.0,10.2,29.73,WSW,248,0.4,2.0,71,0.00,,,0.00,WUHU216HW,2013-02-04 00:53:00,
2013-02-03 19:58:00,18.2,10.4,29.73,WSW,248,0.8,2.0,71,0.00,,,0.00,WUHU216HW,2013-02-04 00:58:00,
2013-02-03 20:03:00,18.0,10.2,29.73,WSW,248,1.6,1.6,71,0.00,,,0.00,WUHU216HW,2013-02-04 01:03:00,
2013-02-03 20:08:00,17.8,10.0,29.73,WSW,248,0.7,1.8,71,0.00,,,0.00,WUHU216HW,2013-02-04 01:08:00,
2013-02-03 20:13:00,17.6,9.8,29.73,SW,225,1.3,1.8,71,0.00,,,0.00,WUHU216HW,2013-02-04 01:13:00,
2013-02-03 20:18:00,17.6,9.8,29.73,WSW,248,1.0,1.3,71,0.00,,,0.00,WUHU216HW,2013-02-04 01:18:00,
2013-02-03 20:23:00,17.6,9.8,29.73,SW,233,0.6,1.6,71,0.00,,,0.00,WUHU216HW,2013-02-04 01:23:00,
2013-02-03 20:28:00,17.6,9.8,29.73,SW,225,1.2,1.6,71,0.00,,,0.00,WUHU216HW,2013-02-04 01:28:00,
2013-02-03 20:33:00,17.5,9.9,29.73,West,263,1.5,2.0,72,0.00,,,0.00,WUHU216HW,2013-02-04 01:33:00,
2013-02-03 20:38:00,17.3,9.7,29.73,SW,225,1.5,2.0,72,0.00,,,0.00,WUHU216HW,2013-02-04 01:38:00,
2013-02-03 20:43:00,16.9,9.5,29.73,WSW,248,1.8,1.8,72,0.00,,,0.00,WUHU216HW,2013-02-04 01:43:00,
2013-02-03 20:48:00,16.9,9.7,29.73,West,270,1.8,1.8,73,0.00,,,0.00,WUHU216HW,2013-02-04 01:48:00,
2013-02-03 20:53:00,16.9,9.7,29.73,WSW,248,0.9,2.0,73,0.00,,,0.00,WUHU216HW,2013-02-04 01:53:00,
2013-02-03 20:58:00,16.7,9.6,29.73,WSW,248,1.1,2.0,73,0.00,,,0.00,WUHU216HW,2013-02-04 01:58:00,
2013-02-03 21:03:00,16.9,10.0,29.73,SSW,203,1.6,1.6,74,0.00,,,0.00,WUHU216HW,2013-02-04 02:03:00,
2013-02-03 21:08:00,16.9,10.0,29.73,SW,225,0.9,1.6,74,0.00,,,0.00,WUHU216HW,2013-02-04 02:08:00,
2013-02-03 21:13:00,16.9,10.0,29.73,SW,225,1.1,1.6,74,0.00,,,0.00,WUHU216HW,2013-02-04 02:13:00,
2013-02-03 21:18:00,16.7,9.8,29.73,WSW,248,1.3,1.8,74,0.00,,,0.00,WUHU216HW,2013-02-04 02:18:00,
2013-02-03 21:23:00,16.4,9.5,29.72,SW,225,0.9,1.8,74,0.00,,,0.00,WUHU216HW,2013-02-04 02:23:00,
2013-02-03 21:28:00,16.2,9.3,29.72,SW,225,1.1,1.8,74,0.00,,,0.00,WUHU216HW,2013-02-04 02:28:00,
2013-02-03 21:33:00,16.0,9.2,29.72,SW,225,1.8,1.8,74,0.00,,,0.00,WUHU216HW,2013-02-04 02:33:00,
2013-02-03 21:38:00,15.8,9.0,29.72,West,270,1.8,1.8,74,0.00,,,0.00,WUHU216HW,2013-02-04 02:38:00,
2013-02-03 21:43:00,15.8,9.0,29.72,SSW,200,0.8,1.8,74,0.00,,,0.00,WUHU216HW,2013-02-04 02:43:00,
2013-02-03 21:48:00,15.8,9.0,29.71,SW,225,1.3,1.3,74,0.00,,,0.00,WUHU216HW,2013-02-04 02:48:00,
2013-02-03 21:53:00,16.0,9.2,29.71,SW,225,1.8,1.8,74,0.00,,,0.00,WUHU216HW,2013-02-04 02:53:00,
2013-02-03 21:58:00,16.0,9.2,29.71,SSW,203,0.7,1.8,74,0.00,,,0.00,WUHU216HW,2013-02-04 02:58:00,
2013-02-03 22:03:00,16.2,9.3,29.71,SW,225,0.7,1.8,74,0.00,,,0.00,WUHU216HW,2013-02-04 03:03:00,
2013-02-03 22:08:00,16.2,9.3,29.71,SSW,203,1.1,1.8,74,0.00,,,0.00,WUHU216HW,2013-02-04 03:08:00,
2013-02-03 22:13:00,16.4,9.5,29.71,WSW,248,1.6,1.6,74,0.00,,,0.00,WUHU216HW,2013-02-04 03:13:00,
2013-02-03 22:18:00,16.4,9.5,29.71,SW,225,1.2,1.6,74,0.00,,,0.00,WUHU216HW,2013-02-04 03:18:00,
2013-02-03 22:23:00,16.6,9.6,29.70,WSW,251,0.6,1.6,74,0.00,,,0.00,WUHU216HW,2013-02-04 03:23:00,
2013-02-03 22:28:00,16.4,9.5,29.70,South,182,1.0,1.6,74,0.00,,,0.00,WUHU216HW,2013-02-04 03:28:00,
2013-02-03 22:33:00,16.2,9.3,29.70,WSW,243,1.1,1.8,74,0.00,,,0.00,WUHU216HW,2013-02-04 03:33:00,
2013-02-03 22:38:00,16.2,9.3,29.70,SW,225,0.4,1.8,74,0.00,,,0.00,WUHU216HW,2013-02-04 03:38:00,
2013-02-03 22:43:00,16.2,9.3,29.70,SE,135,0.9,1.6,74,0.00,,,0.00,WUHU216HW,2013-02-04 03:43:00,
2013-02-03 22:48:00,16.2,9.6,29.70,SW,225,0.2,1.6,75,0.00,,,0.00,WUHU216HW,2013-02-04 03:48:00,
2013-02-03 22:53:00,16.2,9.6,29.70,SW,225,0.9,1.6,75,0.00,,,0.00,WUHU216HW,2013-02-04 03:53:00,
2013-02-03 22:58:00,16.2,9.6,29.69,SW,225,1.3,1.3,75,0.00,,,0.00,WUHU216HW,2013-02-04 03:58:00,
2013-02-03 23:03:00,16.2,9.6,29.69,SW,225,0.9,1.3,75,0.00,,,0.00,WUHU216HW,2013-02-04 04:03:00,
2013-02-03 23:08:00,16.2,9.6,29.69,WSW,248,1.1,1.3,75,0.00,,,0.00,WUHU216HW,2013-02-04 04:08:00,
2013-02-03 23:13:00,16.2,9.6,29.69,SSW,192,1.3,1.8,75,0.00,,,0.00,WUHU216HW,2013-02-04 04:13:00,
2013-02-03 23:18:00,16.2,9.6,29.69,SW,225,1.1,1.8,75,0.00,,,0.00,WUHU216HW,2013-02-04 04:18:00,
2013-02-03 23:23:00,16.2,9.9,29.69,WNW,293,0.4,1.8,76,0.00,,,0.00,WUHU216HW,2013-02-04 04:23:00,
2013-02-03 23:28:00,16.2,9.9,29.69,WSW,248,1.1,1.6,76,0.00,,,0.00,WUHU216HW,2013-02-04 04:28:00,
2013-02-03 23:33:00,16.2,9.9,29.69,South,180,1.3,1.6,76,0.00,,,0.00,WUHU216HW,2013-02-04 04:33:00,
2013-02-03 23:38:00,16.2,9.9,29.69,WSW,248,1.1,1.3,76,0.00,,,0.00,WUHU216HW,2013-02-04 04:38:00,
2013-02-03 23:43:00,16.2,9.9,29.69,SE,135,1.1,1.3,76,0.00,,,0.00,WUHU216HW,2013-02-04 04:43:00,
2013-02-03 23:48:00,16.2,9.9,29.69,WSW,248,0.8,2.0,76,0.00,,,0.00,WUHU216HW,2013-02-04 04:48:00,
2013-02-03 23:53:00,16.0,9.7,29.69,SSW,203,2.5,2.5,76,0.00,,,0.00,WUHU216HW,2013-02-04 04:53:00,
2013-02-03 23:58:00,15.8,9.5,29.69,West,270,0.7,2.5,76,0.00,,,0.00,WUHU216HW,2013-02-04 04:58:00,